Time,TemperatureF,DewpointF,PressureIn,WindDirection,WindDirectionDegrees,WindSpeedMPH,WindSpeedGustMPH,Humidity,HourlyPrecipIn,Conditions,Clouds,dailyrainin,SoftwareType,DateUTC
2013-02-01 00:03:00,30.1,11.0,29.62,WSW,239,7.0,17.0,46,0.00,,,0.00,weatherlink.com 1.10,2013-02-01 05:03:00,
2013-02-01 00:17:00,30.0,11.0,29.63,West,263,6.0,13.0,45,0.00,,,0.00,weatherlink.com 1.10,2013-02-01 05:17:00,
2013-02-01 00:33:00,29.8,11.0,29.64,WSW,238,5.0,11.0,46,0.00,,,0.00,weatherlink.com 1.10,2013-02-01 05:33:00,
2013-02-01 00:48:00,29.7,11.0,29.64,West,277,3.0,15.0,46,0.00,,,0.00,weatherlink.com 1.10,2013-02-01 05:48:00,
2013-02-01 01:03:00,29.5,11.0,29.64,West,271,3.0,11.0,47,0.00,,,0.00,weatherlink.com 1.10,2013-02-01 06:03:00,
2013-02-01 01:18:00,29.2,12.0,29.65,SW,225,5.0,11.0,49,0.00,,,0.00,weatherlink.com 1.10,2013-02-01 06:18:00,
2013-02-01 01:33:00,29.1,13.0,29.65,SW,226,6.0,12.0,52,0.00,,,0.00,weatherlink.com 1.10,2013-02-01 06:33:00,
2013-02-01 01:48:00,29.1,15.0,29.66,WSW,252,11.0,18.0,55,0.00,,,0.00,weatherlink.com 1.10,2013-02-01 06:48:00,
2013-02-01 02:03:00,28.9,15.0,29.67,West,266,10.0,17.0,57,0.00,,,0.00,weatherlink.com 1.10,2013-02-01 07:03:00,
2013-02-01 02:18:00,28.8,16.0,29.68,West,280,8.0,20.0,58,0.00,,,0.00,weatherlink.com 1.10,2013-02-01 07:18:00,
2013-02-01 02:33:00,28.3,15.0,29.68,West,276,4.0,17.0,58,0.00,,,0.00,weatherlink.com 1.10,2013-02-01 07:33:00,
2013-02-01 02:48:00,27.9,15.0,29.68,West,260,3.0,13.0,59,0.00,,,0.00,weatherlink.com 1.10,2013-02-01 07:48:00,
2013-02-01 03:03:00,27.6,15.0,29.68,WNW,284,0.0,13.0,59,0.00,,,0.00,weatherlink.com 1.10,2013-02-01 08:03:00,
2013-02-01 03:18:00,27.4,14.0,29.69,WSW,255,3.0,13.0,57,0.00,,,0.00,weatherlink.com 1.10,2013-02-01 08:18:00,
2013-02-01 03:33:00,27.4,13.0,29.69,WSW,243,3.0,13.0,56,0.00,,,0.00,weatherlink.com 1.10,2013-02-01 08:33:00,
2013-02-01 04:03:00,27.0,12.0,29.71,NW,322,4.0,14.0,53,0.00,,,0.00,weatherlink.com 1.10,2013-02-01 09:03:00,
2013-02-01 04:18:00,27.0,11.0,29.71,SW,223,7.0,19.0,50,0.00,,,0.00,weatherlink.com 1.10,2013-02-01 09:18:00,
2013-02-01 04:34:00,26.7,10.0,29.71,WSW,241,8.0,14.0,49,0.00,,,0.00,weatherlink.com 1.10,2013-02-01 09:34:00,
2013-02-01 04:48:00,26.5,10.0,29.71,SW,233,7.0,14.0,49,0.00,,,0.00,weatherlink.com 1.10,2013-02-01 09:48:00,
2013-02-01 05:04:00,26.4,9.0,29.72,SW,231,2.0,18.0,48,0.00,,,0.00,weatherlink.com 1.10,2013-02-01 10:04:00,
2013-02-01 05:19:00,26.2,9.0,29.72,West,264,5.0,11.0,48,0.00,,,0.00,weatherlink.com 1.10,2013-02-01 10:19:00,
2013-02-01 05:34:00,26.2,9.0,29.72,SW,232,10.0,16.0,48,0.00,,,0.00,weatherlink.com 1.10,2013-02-01 10:34:00,
2013-02-01 05:49:00,26.0,9.0,29.72,WSW,254,1.0,15.0,49,0.00,,,0.00,weatherlink.com 1.10,2013-02-01 10:49:00,
2013-02-01 06:04:00,25.9,9.0,29.73,WSW,254,2.0,14.0,49,0.00,,,0.00,weatherlink.com 1.10,2013-02-01 11:04:00,
2013-02-01 06:19:00,25.7,9.0,29.73,SW,226,2.0,14.0,50,0.00,,,0.00,weatherlink.com 1.10,2013-02-01 11:19:00,
2013-02-01 06:34:00,25.6,9.0,29.74,WSW,240,6.0,10.0,49,0.00,,,0.00,weatherlink.com 1.10,2013-02-01 11:34:00,
2013-02-01 06:49:00,25.6,10.0,29.75,SW,225,8.0,14.0,51,0.00,,,0.00,weatherlink.com 1.10,2013-02-01 11:49:00,
2013-02-01 07:04:00,25.5,10.0,29.76,SW,229,7.0,11.0,51,0.00,,,0.00,weatherlink.com 1.10,2013-02-01 12:04:00,
2013-02-01 07:19:00,25.8,10.0,29.77,SSW,209,3.0,13.0,52,0.00,,,0.00,weatherlink.com 1.10,2013-02-01 12:19:00,
2013-02-01 07:34:00,26.1,11.0,29.78,WSW,248,10.0,12.0,52,0.00,,,0.00,weatherlink.com 1.10,2013-02-01 12:34:00,
2013-02-01 07:49:00,26.3,11.0,29.79,WSW,249,5.0,19.0,53,0.00,,,0.00,weatherlink.com 1.10,2013-02-01 12:49:00,
2013-02-01 08:04:00,26.7,12.0,29.80,South,191,13.0,19.0,53,0.00,,,0.00,weatherlink.com 1.10,2013-02-01 13:04:00,
2013-02-01 08:19:00,27.1,12.0,29.81,WSW,240,2.0,15.0,53,0.00,,,0.00,weatherlink.com 1.10,2013-02-01 13:19:00,
2013-02-01 08:34:00,27.5,12.0,29.82,WNW,283,7.0,23.0,52,0.00,,,0.00,weatherlink.com 1.10,2013-02-01 13:34:00,
2013-02-01 08:49:00,27.9,12.0,29.82,WSW,248,15.0,17.0,52,0.00,,,0.00,weatherlink.com 1.10,2013-02-01 13:49:00,
2013-02-01 09:04:00,28.0,12.0,29.82,WSW,237,21.0,21.0,51,0.00,,,0.00,weatherlink.com 1.10,2013-02-01 14:04:00,
2013-02-01 09:19:00,28.1,12.0,29.81,West,259,12.0,20.0,51,0.00,,,0.00,weatherlink.com 1.10,2013-02-01 14:19:00,
2013-02-01 09:34:00,28.7,13.0,29.81,WSW,252,8.0,23.0,51,0.00,,,0.00,weatherlink.com 1.10,2013-02-01 14:34:00,
2013-02-01 09:49:00,28.5,15.0,29.81,WNW,285,3.0,17.0,57,0.00,,,0.00,weatherlink.com 1.10,2013-02-01 14:49:00,
2013-02-01 10:04:00,27.2,17.0,29.82,West,260,2.0,12.0,66,0.00,,,0.00,weatherlink.com 1.10,2013-02-01 15:04:00,
2013-02-01 10:19:00,28.1,15.0,29.82,NE,46,2.0,11.0,58,0.00,,,0.00,weatherlink.com 1.10,2013-02-01 15:19:00,
2013-02-01 10:34:00,28.2,11.0,29.82,SW,231,10.0,15.0,49,0.00,,,0.00,weatherlink.com 1.10,2013-02-01 15:34:00,
2013-02-01 10:49:00,28.5,10.0,29.82,West,281,7.0,15.0,47,0.00,,,0.00,weatherlink.com 1.10,2013-02-01 15:49:00,
2013-02-01 11:04:00,28.7,11.0,29.81,WNW,284,7.0,15.0,47,0.00,,,0.00,weatherlink.com 1.10,2013-02-01 16:04:00,
2013-02-01 11:19:00,29.4,10.0,29.81,West,264,6.0,21.0,44,0.00,,,0.00,weatherlink.com 1.10,2013-02-01 16:19:00,
2013-02-01 11:34:00,29.5,10.0,29.80,WNW,292,5.0,22.0,44,0.00,,,0.00,weatherlink.com 1.10,2013-02-01 16:34:00,
2013-02-01 11:49:00,29.6,9.0,29.80,WNW,288,3.0,16.0,43,0.00,,,0.00,weatherlink.com 1.10,2013-02-01 16:49:00,
2013-02-01 12:04:00,29.8,5.0,29.80,West,272,7.0,16.0,35,0.00,,,0.00,weatherlink.com 1.10,2013-02-01 17:04:00,
2013-02-01 12:20:00,30.2,5.0,29.78,WNW,298,7.0,14.0,35,0.00,,,0.00,weatherlink.com 1.10,2013-02-01 17:20:00,
2013-02-01 12:34:00,30.1,6.0,29.77,WSW,249,6.0,19.0,36,0.00,,,0.00,weatherlink.com 1.10,2013-02-01 17:34:00,
2013-02-01 12:50:00,29.5,5.0,29.77,WNW,290,8.0,22.0,36,0.00,,,0.00,weatherlink.com 1.10,2013-02-01 17:50:00,
2013-02-01 13:04:00,29.4,5.0,29.79,NW,310,9.0,18.0,36,0.00,,,0.00,weatherlink.com 1.10,2013-02-01 18:04:00,
2013-02-01 13:20:00,29.3,6.0,29.78,West,269,10.0,19.0,37,0.00,,,0.00,weatherlink.com 1.10,2013-02-01 18:20:00,
2013-02-01 13:34:00,29.7,6.0,29.78,West,265,4.0,16.0,37,0.00,,,0.00,weatherlink.com 1.10,2013-02-01 18:34:00,
2013-02-01 13:50:00,29.6,6.0,29.79,WNW,295,3.0,18.0,36,0.00,,,0.00,weatherlink.com 1.10,2013-02-01 18:50:00,
2013-02-01 14:04:00,29.7,6.0,29.79,West,280,3.0,13.0,37,0.00,,,0.00,weatherlink.com 1.10,2013-02-01 19:04:00,
2013-02-01 14:19:00,30.0,5.0,29.79,West,259,5.0,16.0,35,0.00,,,0.00,weatherlink.com 1.10,2013-02-01 19:19:00,
2013-02-01 14:34:00,29.6,5.0,29.80,West,281,5.0,18.0,35,0.00,,,0.00,weatherlink.com 1.10,2013-02-01 19:34:00,
2013-02-01 14:49:00,29.7,6.0,29.80,WNW,284,13.0,13.0,36,0.00,,,0.00,weatherlink.com 1.10,2013-02-01 19:49:00,
2013-02-01 15:04:00,29.3,5.0,29.81,WNW,291,2.0,13.0,35,0.00,,,0.00,weatherlink.com 1.10,2013-02-01 20:04:00,
2013-02-01 15:20:00,29.3,4.0,29.82,WNW,290,3.0,16.0,34,0.00,,,0.00,weatherlink.com 1.10,2013-02-01 20:20:00,
2013-02-01 15:35:00,29.1,5.0,29.84,West,281,4.0,19.0,36,0.00,,,0.00,weatherlink.com 1.10,2013-02-01 20:35:00,
2013-02-01 15:50:00,28.5,5.0,29.84,NW,306,6.0,16.0,36,0.00,,,0.00,weatherlink.com 1.10,2013-02-01 20:50:00,
2013-02-01 16:04:00,28.5,5.0,29.85,WNW,302,5.0,19.0,37,0.00,,,0.00,weatherlink.com 1.10,2013-02-01 21:04:00,
2013-02-01 16:20:00,28.6,5.0,29.87,NW,309,8.0,15.0,37,0.00,,,0.00,weatherlink.com 1.10,2013-02-01 21:20:00,
2013-02-01 16:34:00,27.9,6.0,29.88,NW,323,7.0,21.0,39,0.00,,,0.00,weatherlink.com 1.10,2013-02-01 21:34:00,
2013-02-01 16:50:00,27.6,7.0,29.89,West,264,2.0,14.0,41,0.00,,,0.00,weatherlink.com 1.10,2013-02-01 21:50:00,
2013-02-01 17:05:00,27.2,5.0,29.90,WNW,286,5.0,14.0,39,0.00,,,0.00,weatherlink.com 1.10,2013-02-01 22:05:00,
2013-02-01 17:20:00,26.9,5.0,29.91,WNW,300,9.0,12.0,40,0.00,,,0.00,weatherlink.com 1.10,2013-02-01 22:20:00,
2013-02-01 17:35:00,26.9,6.0,29.92,West,268,3.0,12.0,41,0.00,,,0.00,weatherlink.com 1.10,2013-02-01 22:35:00,
2013-02-01 17:50:00,26.8,7.0,29.93,West,271,5.0,11.0,43,0.00,,,0.00,weatherlink.com 1.10,2013-02-01 22:50:00,
2013-02-01 18:05:00,26.8,7.0,29.95,WNW,285,3.0,14.0,43,0.00,,,0.00,weatherlink.com 1.10,2013-02-01 23:05:00,
2013-02-01 18:20:00,26.7,6.0,29.96,NW,311,10.0,15.0,42,0.00,,,0.00,weatherlink.com 1.10,2013-02-01 23:20:00,
2013-02-01 18:35:00,26.5,6.0,29.98,WNW,295,2.0,16.0,41,0.00,,,0.00,weatherlink.com 1.10,2013-02-01 23:35:00,
2013-02-01 18:50:00,26.2,5.0,29.99,West,263,8.0,17.0,41,0.00,,,0.00,weatherlink.com 1.10,2013-02-01 23:50:00,
2013-02-01 19:05:00,25.9,6.0,30.00,West,278,4.0,19.0,43,0.00,,,0.00,weatherlink.com 1.10,2013-02-02 00:05:00,
2013-02-01 19:20:00,25.3,7.0,30.01,West,281,5.0,12.0,45,0.00,,,0.00,weatherlink.com 1.10,2013-02-02 00:20:00,
2013-02-01 19:35:00,25.0,7.0,30.02,WNW,285,4.0,12.0,47,0.00,,,0.00,weatherlink.com 1.10,2013-02-02 00:35:00,
2013-02-01 19:50:00,24.6,7.0,30.02,WNW,288,6.0,15.0,48,0.00,,,0.00,weatherlink.com 1.10,2013-02-02 00:50:00,
2013-02-01 20:05:00,24.4,8.0,30.04,WNW,292,7.0,11.0,49,0.00,,,0.00,weatherlink.com 1.10,2013-02-02 01:05:00,
2013-02-01 20:20:00,24.1,8.0,30.04,WNW,286,6.0,14.0,51,0.00,,,0.00,weatherlink.com 1.10,2013-02-02 01:20:00,
2013-02-01 20:35:00,23.8,7.0,30.05,NNW,337,4.0,17.0,49,0.00,,,0.00,weatherlink.com 1.10,2013-02-02 01:35:00,
2013-02-01 20:51:00,23.5,7.0,30.05,WNW,283,3.0,12.0,50,0.00,,,0.00,weatherlink.com 1.10,2013-02-02 01:51:00,
2013-02-01 21:05:00,23.2,7.0,30.06,West,273,5.0,13.0,51,0.00,,,0.00,weatherlink.com 1.10,2013-02-02 02:05:00,
2013-02-01 21:20:00,22.9,7.0,30.07,WSW,253,3.0,11.0,51,0.00,,,0.00,weatherlink.com 1.10,2013-02-02 02:20:00,
2013-02-01 21:36:00,22.6,6.0,30.07,WNW,285,5.0,18.0,48,0.00,,,0.00,weatherlink.com 1.10,2013-02-02 02:36:00,
2013-02-01 21:51:00,22.2,5.0,30.08,WNW,300,2.0,16.0,47,0.00,,,0.00,weatherlink.com 1.10,2013-02-02 02:51:00,
2013-02-01 22:06:00,22.0,4.0,30.08,West,259,9.0,14.0,47,0.00,,,0.00,weatherlink.com 1.10,2013-02-02 03:06:00,
2013-02-01 22:21:00,21.8,4.0,30.09,NW,307,4.0,13.0,46,0.00,,,0.00,weatherlink.com 1.10,2013-02-02 03:21:00,
2013-02-01 22:36:00,21.6,4.0,30.09,West,259,17.0,17.0,46,0.00,,,0.00,weatherlink.com 1.10,2013-02-02 03:36:00,
2013-02-01 22:51:00,21.4,4.0,30.10,WNW,288,4.0,13.0,47,0.00,,,0.00,weatherlink.com 1.10,2013-02-02 03:51:00,
2013-02-01 23:06:00,21.2,4.0,30.11,WSW,255,7.0,12.0,48,0.00,,,0.00,weatherlink.com 1.10,2013-02-02 04:06:00,
2013-02-01 23:21:00,21.0,4.0,30.11,WSW,243,1.0,9.0,49,0.00,,,0.00,weatherlink.com 1.10,2013-02-02 04:21:00,
2013-02-01 23:36:00,20.8,5.0,30.11,West,278,4.0,12.0,51,0.00,,,0.00,weatherlink.com 1.10,2013-02-02 04:36:00,
2013-02-01 23:51:00,20.6,5.0,30.11,SW,236,2.0,13.0,52,0.00,,,0.00,weatherlink.com 1.10,2013-02-02 04:51:00,